Content
SEND FEEDBACK

Daily
Averages
Monthly
Summary
United States of America

AGANA, GUAM


Home > North America > United States > Guam
Elevation: 246 feet     Latitude: 13 29N     Longitude: 144 48E

WEATHER
 
SELECT A DAY
Number of Records: 213,899;   Date Range: 1/1/95 - 10/23/14
 
SHARE

PRINT THIS DATA

[ ← Previous Day ]
WEATHER ALMANAC - NOVEMBER 30, 2013
[ Next Day → ]
[ °C ]   °F
Weather ElementAverageHighLow
Temperature83 °F89.6 °F (2:01 pm)79 °F (2:54 am)
Dewpoint74.5 °F78.1 °F (7:54 pm)72 °F (12:54 pm)
Humidity76.3 %94 % (11:54 pm)59 % (12:54 pm)
Barometer29.87 in29.92 in (8:54 am)29.80 in (2:54 pm)
Wind Speed11.5 mph17.3 mph (10:54 am)
Wind Gust23 mph (9:42 pm)
Weather ElementAverage
Visibility9.9 mi
Wind DirectionENE (69.3 °)

Weather ElementTotal
Precipitation0.04 in
Cooling Degree Days19.3 (Base 65)
Growing Degree Days34.3 (Base 50)
Averaged from 28 records on November 30, 2013
WEATHER CONDITIONS BREAKOUT
WIND DIRECTION BREAKOUT
WEATHER BY HOUR - NOVEMBER 30, 2013
[ °C ]   °F
Local TimeTemperatureDewpointHumidityBarometerVisibilityWind DirectionWind SpeedGust SpeedPrecipitationEventsConditions
1:54 AM80.1 °F73.0 °F79 %29.86 in10.0 miENE (70°)9.2 mphPartly Cloudy
2:54 AM79.0 °F73.0 °F82 %29.85 in10.0 miEast (90°)5.8 mphClear
3:54 AM80.1 °F73.0 °F79 %29.85 in10.0 miEast (90°)3.5 mphPartly Cloudy
4:54 AM79.0 °F73.0 °F82 %29.86 in10.0 miEast (80°)5.8 mphClear
5:54 AM80.1 °F73.9 °F81 %29.87 in10.0 miENE (70°)6.9 mphClear
6:54 AM80.1 °F73.9 °F81 %29.89 in10.0 miENE (60°)5.8 mphClear
7:54 AM82.9 °F73.9 °F74 %29.91 in10.0 miEast (80°)8.1 mphClear
8:54 AM84.0 °F73.9 °F72 %29.92 in10.0 miENE (60°)13.8 mphScattered Clouds
9:54 AM84.9 °F73.9 °F69 %29.92 in10.0 miNE (50°)15.0 mphScattered Clouds
10:54 AM87.1 °F73.9 °F65 %29.90 in10.0 miENE (70°)17.3 mphScattered Clouds
11:54 AM88.0 °F73.0 °F61 %29.86 in10.0 miEast (90°)13.8 mphPartly Cloudy
12:54 PM88.0 °F72.0 °F59 %29.83 in10.0 miENE (70°)13.8 mph20.7 mphScattered Clouds
1:54 PM88.0 °F73.9 °F63 %29.81 in10.0 miENE (60°)13.8 mphScattered Clouds
2:01 PM89.6 °F73.4 °F59 %29.83 in10.0 miNE (50°)16.1 mphMostly Cloudy
2:29 PM87.8 °F73.4 °F62 %29.82 in10.0 miEast (80°)16.1 mphScattered Clouds
2:54 PM88.0 °F73.0 °F61 %29.80 in10.0 miEast (80°)13.8 mphScattered Clouds
3:54 PM86.0 °F73.9 °F67 %29.81 in10.0 miENE (70°)13.8 mphPartly Cloudy
4:54 PM84.9 °F73.9 °F69 %29.82 in10.0 miENE (60°)16.1 mphClear
5:54 PM82.9 °F73.9 °F74 %29.85 in10.0 miENE (70°)11.5 mphClear
6:54 PM82.9 °F75.0 °F77 %29.87 in10.0 miENE (70°)12.7 mphClear
7:54 PM81.0 °F78.1 °F91 %29.88 in10.0 miENE (70°)8.1 mph0.00 inRainLight Rain
8:54 PM81.0 °F77.0 °F88 %29.90 in10.0 miENE (70°)10.4 mph0.01 inOvercast
9:05 PM80.6 °F77.0 °F89 %29.92 in9.0 miENE (60°)13.8 mph21.9 mph0.00 inRain-ThunderstormLight Rain
9:23 PM80.6 °F77.0 °F89 %29.92 in10.0 miEast (80°)8.1 mph0.00 inThunderstormThunderstorm
9:42 PM80.6 °F77.0 °F89 %29.92 in8.0 miENE (70°)17.3 mph23.0 mph0.00 inRainLight Rain
9:54 PM80.1 °F77.0 °F90 %29.90 in10.0 miENE (60°)12.7 mph0.01 inRainLight Rain
10:54 PM79.0 °F75.9 °F90 %29.90 in10.0 miENE (60°)10.4 mph0.02 inScattered Clouds
11:54 PM79.0 °F77.0 °F94 %29.87 in10.0 miNE (50°)9.2 mphPartly Cloudy
Hourly data recorded from PGUM, located miles away from Agana, Guam







STORIES FROM OUR PARTNERS